Theta_e
302 302 302 302 301 292 295 298 295 299 303 300 297 301 301 294 289 293 300 304 306 313 316 321 325 326 325 327 328 329 328 329 331 330 331 331 334 337 337 331 330 329 329 332 336 337 338 340 342 343 345 347 347 348 347 347 348 349 350 352 351 352 352
303 304 302 303 304 301 295 294 293 301 306 302 297 291 290 286 286 286 302 300 301 302 303 320 323 322 324 324 326 328 329 330 330 330 331 331 333 336 339 337 333 331 330 331 334 337 338 339 341 344 346 347 348 349 349 348 349 348 350 351 352 351 352
301 304 304 303 305 305 303 298 301 296 294 295 295 293 286 286 285 285 296 301 301 302 306 316 318 319 320 323 325 326 328 329 330 331 331 332 333 335 338 340 336 332 331 332 333 335 338 339 342 344 347 348 349 349 350 350 349 350 351 352 352 352 352
301 298 300 292 297 305 303 302 299 300 297 294 295 294 294 291 286 289 290 297 296 307 311 318 318 320 322 323 324 325 328 330 331 331 332 331 331 333 335 339 340 335 333 333 333 334 336 337 341 345 347 348 349 350 351 350 351 351 351 351 353 351 352
298 293 296 295 297 296 298 298 296 298 296 297 298 297 294 292 285 285 289 292 296 307 320 320 320 323 325 325 325 325 327 330 332 333 332 332 332 332 334 337 340 341 336 334 334 335 337 338 342 345 347 348 349 350 350 351 351 351 351 352 353 352 353
292 293 297 301 301 301 299 296 296 295 293 290 287 290 295 295 291 286 289 288 299 315 324 322 323 325 326 326 328 327 329 330 331 333 333 333 333 333 334 337 340 342 342 337 336 337 338 337 341 344 347 348 349 350 351 351 352 352 352 352 353 353 353
296 297 302 304 304 305 302 301 299 301 295 292 288 284 288 291 294 301 294 295 303 317 321 322 323 325 326 326 326 326 327 328 331 332 334 336 335 335 336 337 339 341 341 338 337 338 337 338 340 343 345 347 348 349 351 351 352 353 353 353 354 353 353
302 304 305 304 306 305 302 303 303 304 303 302 293 289 288 292 298 293 295 296 303 316 321 323 324 325 326 327 327 326 326 328 330 331 332 332 333 335 337 338 339 339 340 338 337 338 337 338 341 343 345 347 348 349 350 351 351 353 354 354 354 353 352
294 296 300 300 303 304 298 298 302 306 308 307 300 297 296 294 299 300 294 294 302 314 321 323 323 325 325 325 327 327 326 328 329 329 331 333 334 335 334 334 335 336 336 335 335 337 337 337 340 343 345 346 347 348 350 351 351 353 354 354 353 353 352
283 284 284 288 292 298 301 302 304 308 308 306 300 298 294 289 299 301 299 301 307 314 319 320 321 323 324 326 327 328 328 327 328 328 331 332 331 331 332 333 334 334 335 337 337 339 340 341 340 340 341 345 348 349 349 350 351 352 353 354 353 352 351
287 292 296 300 305 299 299 302 304 306 309 310 304 297 295 295 300 303 304 306 308 311 315 317 318 320 321 323 326 325 325 326 327 329 331 331 330 331 332 332 332 334 334 335 338 340 341 342 342 342 342 343 342 341 342 343 343 344 347 349 352 352 351
293 297 300 303 305 302 299 303 304 307 307 309 307 301 297 299 296 297 307 309 307 309 314 316 317 319 321 323 325 326 325 325 326 329 330 332 331 331 331 330 331 331 333 336 337 340 340 341 342 342 342 343 343 343 342 345 345 345 346 346 345 346 348
295 297 300 304 302 302 302 304 305 305 307 308 306 305 306 302 298 300 308 309 308 311 315 317 318 319 320 323 324 327 328 328 329 328 328 328 329 329 330 330 331 331 333 334 336 338 340 341 341 341 341 342 343 343 345 346 346 346 347 347 345 344 344
294 295 299 304 304 304 304 304 304 305 306 306 306 306 309 309 307 308 308 309 310 313 315 317 318 321 323 324 327 327 327 327 327 327 327 328 328 329 330 331 331 332 334 335 335 337 338 339 340 340 340 341 342 343 344 345 345 345 347 346 343 342 343
292 295 300 303 304 303 302 305 307 305 307 307 307 306 307 307 305 308 307 306 307 315 319 318 320 322 325 326 325 325 326 327 327 327 327 328 328 328 330 331 331 332 333 334 335 335 337 338 339 340 339 341 342 343 344 344 344 345 346 344 343 342 341
288 293 298 301 303 303 302 302 302 302 303 302 303 303 307 304 301 303 304 301 303 312 319 318 319 320 320 320 323 324 325 326 327 326 326 327 328 329 329 331 332 332 332 333 333 335 336 338 339 339 339 340 341 341 342 343 343 345 345 344 343 342 342
287 291 298 300 298 298 296 297 302 303 305 306 308 308 311 310 308 303 299 302 309 316 319 315 316 318 318 318 319 321 325 326 326 325 326 327 328 328 329 330 331 331 332 333 333 334 336 336 338 339 340 339 339 340 340 341 343 342 342 343 343 342 342
286 290 295 297 292 287 289 303 307 307 305 307 305 304 307 312 310 305 307 311 318 318 316 315 314 315 315 317 319 322 322 324 324 324 325 325 326 326 328 330 331 333 333 334 335 335 335 336 337 339 340 340 341 342 343 342 342 341 341 341 341 342 343
286 289 292 290 284 287 300 308 311 310 311 311 308 308 309 311 314 314 312 314 315 317 317 317 316 316 316 317 317 318 319 321 321 321 321 322 323 323 324 325 327 330 332 333 333 333 334 335 336 336 336 339 340 340 340 340 341 340 340 340 340 340 341
287 286 285 283 284 296 306 308 309 311 312 310 308 305 308 309 311 313 313 313 316 316 316 317 317 316 316 315 316 317 319 318 317 317 317 319 321 321 322 323 324 326 329 330 331 331 333 333 333 334 334 336 336 336 337 338 339 339 338 339 340 339 339
286 286 285 288 295 296 300 303 305 305 302 304 302 298 303 309 310 311 313 316 318 318 315 315 315 316 315 311 312 316 317 317 316 317 317 319 319 321 322 323 323 324 325 326 329 331 331 331 330 331 332 333 333 334 333 333 334 334 336 336 337 340 340
289 287 284 287 286 285 291 299 307 312 310 310 310 306 301 309 310 314 312 313 316 316 313 313 314 313 308 303 308 314 316 316 315 315 315 316 317 319 321 322 323 323 324 324 326 326 327 328 330 331 331 330 330 329 330 331 331 331 331 332 334 336 338
286 284 282 281 281 285 292 299 305 309 312 311 310 301 297 305 309 314 314 312 311 312 311 312 314 307 302 301 307 313 315 315 316 313 314 315 316 317 318 319 319 321 323 324 325 325 324 325 327 329 328 328 327 326 327 327 328 328 329 330 331 332 334
289 283 282 285 287 290 298 301 304 307 309 309 302 289 291 302 309 314 316 314 312 312 309 311 310 308 302 302 307 314 317 315 313 313 313 313 314 315 316 318 319 320 322 321 321 321 322 323 326 326 326 326 326 324 325 326 325 326 327 328 331 332 333
293 295 288 288 292 299 303 304 306 306 309 302 290 286 295 307 311 315 316 317 316 313 313 312 310 309 309 309 311 315 317 313 312 313 315 314 314 314 315 317 322 317 317 318 318 319 320 321 323 324 324 323 322 324 323 323 324 326 328 329 328 328 328
289 286 286 287 289 295 301 303 307 308 302 290 288 297 306 310 312 315 316 315 316 316 316 314 311 311 314 315 313 313 313 312 312 313 313 314 315 316 320 321 319 315 316 317 318 318 319 319 321 321 322 322 321 321 321 322 325 327 326 326 327 327 327
289 285 285 284 283 297 305 306 303 305 296 295 298 307 313 316 315 315 314 313 314 315 313 313 312 311 311 312 312 312 311 311 311 312 312 312 312 313 314 315 319 317 315 315 316 316 318 318 318 319 321 321 320 319 318 320 323 326 325 324 325 326 326
287 284 284 284 290 294 304 302 296 299 303 305 308 311 310 314 314 313 312 311 312 312 312 311 309 309 310 310 310 310 310 310 310 310 310 310 311 312 314 316 316 318 314 315 315 316 316 317 317 317 318 320 320 318 316 320 323 325 325 323 323 325 327
291 289 288 295 298 302 306 303 304 306 310 311 311 312 310 311 312 313 314 312 313 313 312 310 309 308 309 309 310 309 308 308 308 309 309 309 309 310 311 313 317 315 314 313 314 314 315 315 316 315 315 316 318 315 316 321 322 323 324 325 324 323 322
300 300 300 304 305 306 307 308 308 310 310 313 313 313 310 310 311 313 314 315 316 315 313 312 310 309 309 308 308 309 308 307 308 309 308 307 308 310 311 312 314 312 313 314 313 313 313 314 315 317 315 315 315 314 317 319 320 323 322 322 323 322 322
291 291 300 303 305 306 307 308 309 310 311 311 311 311 310 312 314 314 315 317 316 316 315 313 311 309 309 308 308 309 307 307 306 306 306 306 307 308 310 313 313 311 312 312 312 312 312 311 312 314 313 315 315 315 317 316 319 323 323 320 320 319 319
291 292 299 302 305 305 307 308 309 309 310 311 312 312 313 314 315 316 316 317 316 316 314 313 312 310 308 308 307 307 307 307 306 305 305 305 307 308 310 312 311 309 309 308 309 310 310 309 309 311 312 312 313 314 315 316 317 322 323 322 317 316 318
299 302 303 303 304 306 306 307 307 309 310 312 312 313 314 315 316 317 318 318 317 317 315 314 313 311 310 309 308 307 306 306 306 305 305 304 306 308 310 312 312 307 310 310 310 311 309 307 308 309 309 310 312 313 314 314 315 321 322 323 320 317 318
294 297 300 302 298 296 302 305 307 308 309 313 312 311 313 314 314 314 316 316 316 316 316 316 315 313 312 309 308 307 307 307 306 305 305 306 307 309 310 313 310 311 313 310 310 310 308 306 307 310 308 309 309 312 313 313 314 319 321 320 317 317 319
295 301 304 306 303 303 305 307 308 308 310 312 311 311 311 312 312 314 314 313 314 314 315 315 316 314 313 311 309 307 307 308 308 306 304 306 308 308 310 310 309 310 309 313 310 310 307 309 309 310 310 308 307 310 311 311 312 312 315 317 317 315 320
302 304 306 305 303 304 305 307 308 309 310 312 310 310 310 312 312 312 312 312 313 312 314 314 315 315 313 312 310 309 308 308 308 308 306 307 308 310 311 310 310 310 311 312 310 310 307 308 307 306 307 306 305 308 309 310 310 310 311 314 313 313 315
302 306 307 306 305 307 309 308 309 310 311 312 310 309 310 311 310 310 311 310 311 313 312 313 315 314 314 312 312 310 310 310 311 310 310 312 311 311 310 311 311 312 312 312 309 308 306 307 307 309 307 306 306 308 308 309 310 310 310 311 310 310 313
Wind_Speed
8 7 3 2 2 2 4 1 2 4 7 4 2 3 1 3 5 3 2 5 4 6 1 5 8 8 6 6 7 7 7 9 11 12 11 11 9 8 7 8 11 13 13 14 15 15 14 14 14 14 14 13 14 13 12 13 12 11 12 12 11 9 8
6 8 3 5 6 2 0 1 2 3 7 6 2 4 2 1 3 2 0 2 5 3 2 6 9 12 7 3 4 6 7 9 12 12 12 12 11 10 8 6 7 12 14 15 14 14 16 16 16 15 15 14 13 13 14 14 12 12 12 12 11 10 9
6 7 7 12 10 4 0 2 2 3 0 0 3 1 2 1 1 1 1 1 2 1 4 10 13 12 11 8 1 4 6 8 10 10 12 12 11 9 8 6 6 8 11 13 14 15 15 15 16 16 15 14 12 12 13 15 15 14 13 11 10 9 9
5 4 6 5 8 11 1 1 6 2 1 5 3 5 2 1 2 1 2 1 0 4 5 8 10 10 9 9 4 5 8 10 10 10 11 12 13 11 10 7 5 7 11 13 14 15 15 14 14 13 14 13 14 14 13 12 12 12 12 12 11 10 9
4 5 4 3 2 4 9 10 7 5 2 3 1 1 2 3 4 3 2 0 2 2 5 7 8 10 11 9 6 4 4 7 8 9 10 10 10 11 11 9 6 5 7 9 10 10 13 13 13 13 13 15 14 13 13 13 14 12 12 12 11 10 9
4 3 2 3 4 3 1 1 3 5 6 2 2 3 2 1 2 3 3 2 2 4 6 6 7 8 10 13 9 7 7 3 3 5 7 8 9 9 12 12 9 6 5 7 7 7 7 10 12 14 13 13 13 14 13 13 12 12 13 12 11 10 9
2 2 12 3 6 1 2 2 7 7 2 1 3 2 3 1 1 2 3 6 1 4 6 7 7 7 10 12 12 11 10 12 13 10 4 1 2 3 5 6 5 4 6 7 9 10 10 12 12 13 13 13 14 14 13 12 13 13 12 12 11 10 10
5 7 6 4 7 12 9 8 10 7 6 5 5 6 3 2 3 1 1 3 1 4 6 6 6 5 7 9 12 11 9 10 12 15 12 8 9 10 10 8 6 4 6 5 2 4 9 9 11 13 13 13 13 12 13 12 13 13 12 11 10 10 9
6 9 9 8 6 7 2 4 9 9 9 9 4 2 1 3 2 3 2 2 1 3 6 5 7 9 12 12 11 10 10 10 10 12 11 10 9 6 8 5 4 5 8 9 9 11 12 8 4 4 10 13 12 12 12 12 13 13 12 11 10 10 10
3 2 3 5 7 5 6 3 10 11 11 13 5 1 3 2 5 4 4 3 1 2 5 8 10 11 11 10 9 8 7 9 8 10 9 7 8 10 10 10 10 7 4 6 7 6 5 6 7 10 12 10 3 1 2 1 5 10 11 10 10 10 10
6 6 6 5 1 2 3 9 10 13 13 9 3 3 6 4 0 7 3 2 2 10 11 11 11 10 10 10 10 9 7 6 6 7 7 6 3 3 5 6 5 5 7 3 4 8 8 5 5 3 2 3 6 7 8 9 11 11 8 2 4 9 10
3 8 8 6 4 1 4 7 9 11 14 10 11 6 2 4 4 6 5 5 2 7 8 9 10 9 8 8 8 7 7 7 6 5 6 7 5 3 2 4 3 6 6 1 2 0 7 8 8 7 8 5 1 4 9 9 11 10 6 4 5 6 2
4 3 5 7 8 5 3 7 10 11 9 14 11 5 3 3 4 5 2 1 5 5 8 9 8 7 7 7 7 6 5 4 4 4 5 4 3 2 3 1 1 2 3 5 9 6 5 6 7 9 8 8 8 7 6 6 7 10 11 11 8 10 7
4 3 6 10 15 7 8 9 10 12 7 7 6 7 9 10 10 7 5 5 8 6 8 8 6 6 5 5 4 3 6 7 4 4 4 3 3 4 3 1 3 5 4 2 3 5 6 6 6 6 6 7 9 10 10 8 5 4 9 9 9 8 7
3 5 3 10 15 13 10 8 5 9 7 6 6 3 3 6 4 4 3 5 5 4 6 5 5 5 4 5 9 9 8 7 7 7 6 5 7 6 5 4 4 4 5 5 5 4 2 0 2 4 4 5 6 7 8 8 6 4 3 8 9 8 7
4 3 7 6 10 13 12 6 2 6 8 5 5 4 4 2 2 1 2 4 1 0 5 4 4 5 7 7 8 7 6 7 7 6 6 6 6 6 5 4 4 4 5 6 6 6 5 1 4 4 5 5 6 6 6 8 6 2 5 7 9 8 7
1 1 4 8 4 7 5 5 4 5 1 0 1 3 7 3 2 3 4 0 0 2 5 3 4 6 7 8 7 5 6 7 7 7 7 7 7 7 6 5 5 5 6 6 6 7 6 3 2 7 9 9 8 9 11 10 10 6 2 1 1 4 5
2 3 2 1 6 3 2 1 5 5 2 1 8 2 3 5 4 0 1 1 0 2 4 4 3 5 5 5 5 5 4 5 6 8 8 9 8 7 8 8 7 5 5 5 6 7 7 7 8 7 1 7 5 4 5 7 9 8 8 6 5 4 2
1 2 3 6 2 1 2 2 1 5 5 4 8 3 4 5 5 2 1 0 1 3 3 4 5 6 5 5 9 9 8 7 6 6 7 7 8 8 8 8 8 9 9 9 9 9 9 8 8 8 7 4 6 5 3 4 4 7 6 7 7 5 2
2 4 3 3 2 2 1 2 2 4 4 3 3 5 5 3 3 4 3 1 0 3 4 4 3 3 4 6 8 7 7 6 5 5 5 6 7 8 7 7 8 8 9 10 10 9 8 9 8 7 6 6 8 7 7 7 6 5 4 5 4 5 4
2 1 2 1 1 2 2 1 2 2 2 2 5 2 4 3 1 1 2 4 4 0 2 2 3 2 1 7 6 7 7 7 6 5 5 6 6 6 6 6 7 7 8 9 8 8 9 8 8 7 6 5 6 8 8 8 8 7 6 6 5 4 5
4 5 4 3 1 3 7 6 4 2 3 2 2 4 2 5 4 1 3 4 4 3 1 1 1 1 1 3 3 5 6 6 6 6 4 5 5 6 6 6 8 7 7 7 7 7 8 8 7 6 6 6 7 8 7 7 8 8 8 7 5 4 4
3 3 4 3 4 5 5 4 5 4 4 2 1 2 2 4 3 2 3 4 5 4 3 2 0 1 1 1 2 1 3 5 5 5 6 5 5 6 5 5 6 6 5 5 6 7 8 8 6 5 6 7 8 8 7 7 8 9 7 6 5 4 3
1 4 3 1 3 1 1 6 4 4 2 4 2 2 5 5 4 2 4 4 5 4 2 1 2 3 1 1 4 1 1 3 3 4 4 5 5 5 4 4 4 3 4 6 8 8 8 7 6 6 6 8 9 8 7 7 8 7 6 5 3 3 4
1 4 0 1 3 3 3 3 4 2 2 3 2 5 5 2 2 0 1 2 3 2 2 3 4 2 1 3 4 3 2 5 5 4 4 4 4 4 4 4 4 5 6 7 7 7 6 6 6 6 6 8 8 7 7 8 8 5 3 2 3 4 4
1 1 3 2 4 5 3 2 2 1 3 1 6 4 2 4 2 1 1 2 2 2 2 0 1 1 3 4 5 5 4 4 3 4 4 5 5 5 4 6 5 6 7 8 9 9 9 9 8 7 6 7 7 7 8 8 7 4 3 3 3 5 6
2 3 3 1 1 1 2 0 1 1 2 4 2 1 3 2 3 2 3 3 2 3 3 3 4 4 6 6 6 5 4 4 4 4 4 4 4 4 5 6 6 5 6 7 8 7 8 8 8 7 7 8 7 8 10 9 7 5 4 4 4 4 5
3 2 2 2 3 1 1 2 2 2 3 2 4 3 1 2 3 2 3 1 2 3 5 5 4 3 5 5 6 6 4 4 3 3 3 4 4 4 4 3 3 4 5 5 6 7 7 7 7 8 8 8 8 10 10 8 7 6 6 5 5 5 5
2 3 4 3 3 2 1 4 2 1 0 1 2 4 3 2 1 1 3 3 3 3 4 4 4 3 2 3 3 5 4 4 4 4 3 3 4 4 4 4 4 4 5 5 6 7 7 7 6 6 6 8 8 9 7 6 7 6 5 6 7 7 7
1 0 1 1 1 1 2 2 1 3 2 2 3 5 3 0 2 3 5 4 5 3 3 6 1 1 2 3 2 4 4 5 3 3 3 3 3 3 4 4 4 3 4 5 5 5 6 7 6 5 6 7 7 4 4 5 5 5 6 7 7 6 6
4 0 3 1 4 1 3 4 2 2 2 1 2 3 2 1 3 3 3 7 6 6 4 4 4 3 2 2 1 1 3 4 4 4 4 3 3 3 4 2 3 3 4 4 4 4 4 5 5 5 5 5 3 3 5 5 5 5 6 6 6 6 6
2 3 4 2 2 1 1 1 5 3 3 3 1 2 2 2 2 3 4 5 4 4 4 3 4 4 3 3 3 2 2 3 3 3 3 3 2 1 1 2 3 3 3 3 3 3 3 3 3 3 4 5 5 5 5 5 5 5 5 5 6 6 6
0 1 2 1 3 2 1 2 2 3 6 6 4 4 4 4 4 4 3 1 5 6 5 4 4 4 4 4 4 3 2 2 2 3 3 3 3 3 3 1 1 2 1 1 1 1 1 2 3 3 4 4 5 6 6 5 4 4 5 4 5 6 5
3 7 6 5 5 3 4 5 5 4 3 6 5 4 4 4 4 3 3 3 2 3 4 7 6 6 4 4 4 4 4 4 4 2 2 1 2 3 2 2 2 1 0 0 0 1 0 1 2 3 4 4 4 4 4 5 5 4 3 4 5 5 5
6 8 9 11 5 5 7 8 5 3 4 6 6 5 4 2 3 4 5 3 3 3 2 3 6 5 6 6 4 4 4 5 4 3 3 2 2 2 2 3 2 2 2 1 1 2 3 1 1 1 2 3 3 4 4 4 4 3 3 3 3 4 4
2 5 11 8 5 7 5 5 4 4 4 6 5 3 2 4 4 4 4 4 4 1 1 2 3 5 5 5 6 6 5 4 3 4 3 3 3 2 2 3 4 4 3 3 3 4 3 2 3 2 3 3 3 3 3 3 3 3 3 3 3 2 3
4 4 8 8 3 4 5 6 4 4 4 7 7 5 5 4 2 3 4 2 1 4 3 2 1 3 5 4 4 5 5 5 4 4 4 3 3 2 2 2 4 5 5 5 4 2 1 2 3 3 3 3 2 2 2 3 2 3 3 3 3 2 2
Wind_Direction
14 344 306 90 92 67 286 10 208 206 179 102 5 332 318 64 49 222 215 315 314 295 13 12 6 18 45 127 138 161 175 176 177 190 192 190 184 168 161 190 188 186 185 185 185 184 184 184 183 185 183 182 183 182 184 188 188 185 187 188 189 191 191
328 352 276 104 76 143 124 30 252 338 40 97 139 240 326 78 181 250 22 240 304 28 245 349 16 19 3 48 136 159 172 174 186 193 192 193 187 181 170 186 201 189 187 187 188 188 185 184 185 186 185 184 185 183 184 186 186 188 192 189 189 189 190
307 327 18 17 354 34 271 242 249 132 188 11 315 88 313 266 265 242 309 270 264 156 302 355 350 351 339 321 235 158 175 185 192 190 192 194 193 183 178 179 196 195 192 192 189 190 190 187 185 185 183 182 184 188 188 186 187 189 189 191 191 192 190
312 5 29 35 312 333 99 298 16 351 107 148 151 228 184 138 256 76 289 32 191 10 336 339 331 335 322 321 270 203 191 193 190 190 189 193 196 189 189 191 192 200 198 196 193 190 188 188 187 186 182 182 186 188 187 191 191 188 187 189 189 192 192
13 20 5 349 355 315 330 11 353 359 349 247 116 186 150 213 182 183 166 328 326 316 338 343 340 344 348 345 288 261 219 199 198 192 190 193 197 192 191 197 197 199 202 200 200 198 193 188 186 182 182 185 188 184 187 189 187 189 190 191 188 192 187
40 244 269 302 312 272 127 228 356 277 289 9 95 244 334 164 129 210 147 219 263 352 351 350 3 360 9 12 18 30 353 314 240 202 195 192 194 199 196 197 197 189 190 193 195 198 201 192 185 184 187 186 183 186 189 187 189 189 188 190 190 187 187
210 270 296 303 300 297 48 25 336 337 258 112 126 151 271 329 336 106 157 115 322 343 333 340 1 14 21 23 26 29 25 27 14 345 329 254 199 199 213 210 205 188 194 196 187 189 186 187 189 189 186 186 186 188 186 186 187 192 190 190 188 185 186
310 309 273 292 14 23 7 355 343 355 345 282 212 193 191 133 317 40 11 80 247 348 349 347 348 14 29 31 29 25 24 21 29 23 349 13 51 40 30 21 16 11 356 338 312 191 184 185 186 188 190 189 188 187 187 185 190 190 190 188 186 185 187
351 354 342 354 11 36 96 291 321 324 315 324 260 85 57 87 355 261 115 129 316 349 344 2 13 23 34 35 31 28 26 28 29 33 13 0 346 26 39 49 78 60 49 28 18 15 1 342 312 220 194 188 189 191 187 187 191 189 187 183 182 186 188
47 338 359 291 345 310 301 295 333 339 346 340 350 201 11 88 356 47 70 123 241 326 1 24 29 27 32 37 42 39 41 34 44 38 37 29 23 22 29 19 14 31 81 108 95 80 49 26 29 21 8 355 339 355 6 289 213 191 185 180 182 183 185
172 197 197 239 137 336 353 336 351 340 345 353 19 104 77 77 352 64 21 16 11 21 23 24 30 26 24 28 36 36 29 41 38 41 41 54 37 34 48 76 76 18 2 35 111 133 137 142 138 116 110 127 122 112 87 68 39 12 359 340 205 186 183
204 174 184 185 158 115 345 358 346 352 358 358 42 44 126 171 80 30 6 3 68 35 31 33 29 26 26 32 32 34 34 28 54 57 58 57 54 34 47 45 61 121 131 125 317 312 146 145 152 148 147 164 167 141 153 166 153 156 163 117 57 7 295
252 204 177 149 106 69 56 20 356 5 347 24 37 25 336 126 94 119 76 54 72 30 37 37 34 20 29 27 26 32 45 47 32 64 91 85 76 62 45 36 337 64 103 152 163 199 197 168 161 159 157 152 144 148 170 192 175 169 159 158 164 166 196
332 20 117 139 109 105 58 31 5 329 355 26 40 47 36 80 112 132 144 80 62 37 40 36 13 359 357 7 30 55 67 67 65 61 41 64 94 63 36 353 346 342 26 73 222 201 173 162 150 149 152 159 161 160 164 176 178 182 163 160 156 167 175
329 329 94 131 117 112 103 76 8 304 300 28 11 43 65 64 61 85 127 94 66 43 54 29 4 344 17 58 55 53 50 52 63 63 57 31 32 49 47 33 8 5 21 12 359 350 335 152 135 125 129 141 150 148 152 137 129 217 197 153 163 169 165
323 342 91 109 103 99 95 93 45 336 346 13 339 18 316 79 77 197 159 52 43 336 81 43 358 17 33 35 40 48 48 49 47 51 53 45 39 44 52 45 41 40 38 28 26 19 12 52 131 127 121 117 117 115 108 121 116 180 201 168 162 170 171
274 276 138 145 124 88 34 8 340 295 318 322 54 20 8 5 334 35 62 223 211 100 82 84 20 34 36 38 23 13 51 57 47 43 35 35 38 38 27 29 37 36 46 45 37 23 20 9 205 165 146 137 143 149 141 135 132 120 66 7 97 136 141
252 315 13 22 68 91 248 291 331 281 244 256 83 345 337 342 43 167 202 175 302 96 89 92 89 58 40 32 15 24 8 51 48 33 29 25 20 21 20 20 27 31 28 39 35 32 20 11 14 353 37 122 123 110 116 123 122 125 127 105 50 9 50
283 350 42 53 44 233 246 268 21 1 7 52 79 62 14 351 352 23 47 360 90 106 134 125 109 93 71 35 39 32 21 29 42 40 29 21 19 18 14 16 14 30 36 35 34 30 21 15 14 11 10 19 86 77 88 96 97 117 121 127 133 134 106
39 36 19 102 234 199 211 201 183 218 234 309 11 12 337 351 346 325 306 295 283 118 108 116 132 114 88 58 39 19 13 24 26 42 45 39 34 30 18 27 26 29 33 39 39 37 27 19 17 28 26 31 60 62 60 61 52 56 83 107 121 121 112
138 145 80 130 60 23 302 242 265 201 207 178 153 175 267 268 234 200 247 274 256 217 123 144 174 182 90 63 30 8 5 20 29 39 52 52 40 34 29 27 30 29 35 36 34 48 49 38 28 20 9 19 71 74 67 63 65 53 59 60 55 89 113
117 123 65 66 65 186 234 234 263 245 206 236 196 111 295 290 274 172 182 231 239 241 239 223 208 75 92 51 35 348 358 15 41 41 39 33 37 34 32 32 34 30 29 41 42 47 51 53 42 32 33 38 51 59 64 72 76 72 65 49 39 41 59
56 55 124 189 165 239 201 227 232 230 204 194 138 68 271 259 224 205 170 222 239 223 209 235 52 49 57 232 190 295 3 13 11 57 52 49 44 34 30 35 39 31 29 44 51 48 49 47 24 36 51 57 57 55 55 60 71 72 65 61 60 60 46
89 139 100 216 203 207 243 232 261 238 187 163 79 32 277 239 206 170 152 198 225 234 202 153 116 157 195 244 188 193 84 40 53 74 72 58 41 28 19 26 34 45 34 46 41 40 40 28 14 24 42 54 53 50 44 48 56 58 57 51 39 55 68
94 95 301 321 306 277 253 241 252 295 187 115 111 207 237 217 136 190 151 166 206 191 160 141 199 221 167 115 151 106 71 83 63 49 52 55 46 34 19 14 21 43 38 38 37 33 22 15 20 14 21 52 49 45 46 47 39 29 30 60 75 77 78
108 156 117 212 240 238 202 281 227 267 105 179 221 236 239 134 144 52 109 94 77 132 192 262 85 95 132 117 97 91 93 107 105 64 49 48 36 25 22 30 31 35 37 34 31 28 21 25 22 18 22 49 45 36 35 27 10 358 352 9 46 66 73
67 43 67 16 64 286 172 190 21 57 140 234 215 150 5 64 115 105 65 95 103 115 73 61 99 110 93 98 105 110 111 102 88 85 80 75 67 41 30 29 24 44 48 44 39 27 19 23 23 17 29 46 40 35 30 5 348 355 5 23 33 57 64
144 111 139 183 215 223 252 137 180 235 197 190 191 116 66 31 93 114 99 68 135 124 123 129 100 97 108 97 109 103 97 97 89 76 77 80 71 55 44 48 35 49 62 53 46 32 25 27 30 29 32 41 34 31 13 345 355 4 6 4 18 35 51
126 190 213 239 226 233 280 158 175 198 324 186 163 108 134 132 39 94 95 116 109 134 129 113 124 103 78 124 128 116 123 108 107 102 89 84 82 75 63 38 34 48 58 58 50 38 26 23 28 36 40 44 39 29 354 351 7 9 14 24 30 26 26
203 94 183 173 28 86 53 27 113 141 84 38 84 109 100 230 191 157 137 150 139 133 139 123 89 127 148 120 101 104 115 114 111 113 93 64 71 71 64 41 37 40 48 53 51 44 24 17 15 25 32 45 44 360 348 8 9 13 33 35 36 29 27
68 124 308 25 164 190 130 110 23 42 96 129 114 98 124 170 129 105 128 141 155 156 157 153 155 165 158 136 120 111 110 119 127 127 123 106 102 95 72 62 79 52 54 46 42 41 29 3 11 12 23 29 32 3 19 4 9 15 39 45 40 29 24
113 219 218 230 306 320 255 163 135 124 103 83 70 124 133 130 129 123 141 126 130 146 150 162 157 171 172 157 186 184 186 160 154 151 145 138 97 36 90 84 96 81 73 77 57 45 22 346 1 18 25 17 7 14 15 12 8 27 39 45 48 34 26
336 18 35 8 39 19 323 310 286 169 152 129 111 103 109 111 101 91 83 111 158 167 177 154 153 158 202 198 184 184 212 205 204 201 189 171 167 161 131 126 90 109 118 91 73 80 13 319 352 21 24 15 8 14 8 7 14 38 37 34 42 43 35
159 174 198 163 119 230 251 250 221 194 197 132 123 105 100 110 118 128 119 71 81 152 161 162 162 177 191 204 181 193 206 216 222 228 230 186 166 185 189 146 124 141 68 87 324 337 295 320 353 10 6 359 2 10 12 12 16 42 35 36 38 29 34
212 231 197 187 158 164 190 187 212 194 167 130 129 147 151 160 143 145 120 97 85 107 127 168 165 177 180 195 185 187 212 233 227 214 190 178 213 218 151 132 134 160 203 229 271 284 286 321 340 344 341 343 345 352 15 24 33 26 41 57 31 28 37
257 192 186 175 151 164 201 210 185 180 175 139 144 164 172 157 156 148 135 153 144 173 150 168 186 173 175 180 172 194 217 232 232 238 230 224 209 198 170 166 171 179 193 202 210 242 279 318 322 331 330 321 333 327 353 26 43 51 29 59 62 16 13
206 199 174 179 175 172 153 157 162 169 169 140 142 161 159 141 165 154 141 166 163 145 149 196 195 167 159 168 180 190 202 218 218 217 211 205 218 216 208 174 185 195 201 199 204 220 251 277 305 310 320 291 310 315 330 20 35 57 48 62 78 39 4